Find Starlink 1230

NORAD ID: 45189 Int'l Des: 2020-012 Owner: SPXS Country: US Constellation: starlink operational
LEOCIRCULAR

Live Position

Loading 3D Globe...

About Starlink 1230

Description loading...

Upcoming Passes

Passes for default location (London). Set your location on the main map for personalized predictions.

Altitude History

Loading altitude history...

Two-Line Element Set

1 45189U 20012M 26125.29524625 .00064196 00000-0 20247-2 0 9996
2 45189 53.1567 136.5978 0002983 51.8043 308.3227 15.32293414340835
Epoch: May 5, 2026 • Age: 21 hours

Current Status

Altitude 473.5 km
Velocity 7.64 km/s
Sub-Earth Point 53.30°N, 60.4°W
Launch Date Feb 17, 2020
Age 6.2 years
Type internet

Technical Details

Classification Payload
Mass 260.00 kg
Dry Mass 248.00 kg
Total Mass 260.00 kg
Length 0.20 m
Diameter 2.80 m
Span 9.00 m
Shape Box + pan
Manufacturer SPXS
Bus Type Starlink
Phase Status In Orbit
Owner/State SPXS/US

Most Searched